Weather History for The Dalles, OR

Change the Weather History Date:

Sunday, March 17, 2013

  Actual Average Record
Temperature  
Mean Temperature 42 °F -  
Max Temperature 48 °F 57 °F 75 °F (1972)
Min Temperature 37 °F 37 °F 26 °F (1965)
Degree Days  
Heating Degree Days 22    
Moisture  
Dew Point 30 °F    
Average Humidity 63    
Maximum Humidity 79    
Minimum Humidity 51    
Precipitation  
Precipitation 0.00 in - - ()
Sea Level Pressure  
Sea Level Pressure 30.17 in    
Wind  
Wind Speed 10 mph (NW)    
Max Wind Speed 16 mph    
Max Gust Speed 29 mph    
Visibility 10 miles    
Events      
Averages and records for this station are not official NWS values.
T = Trace of Precipitation, MM = Missing Value Source: NWS Daily Summary

Daily Weather History Graph

Daily Weather History Graph

Search for Another Location

Airport:

Trip Planner

Search our weather history database for the weather conditions in past years. The results will help you decide how hot, cold, wet, or windy it might be!

Date:

Astronomy

Mar. 17, 2013 Rise Set
Actual Time 7:12 AM PDT 7:13 PM PDT
Civil Twilight 6:43 AM PDT 7:43 PM PDT
Nautical Twilight 6:08 AM PDT 8:18 PM PDT
Astronomical Twilight 5:33 AM PDT 8:53 PM PDT
Moon 10:12 AM PDT (3/17) 12:42 AM PDT (3/17)
Length of Visible Light 13h 00m
Length of Day
12h 00m
Waxing Crescent, 32% of the Moon is Illuminated
Mar 17
Waxing Crescent
Mar 19
First Quarter
Mar 27
Full
Apr 2
Last Quarter
Apr 10
New

Hourly Weather History & Observations

Time (PDT) Temp. Windchill Dew Point Humidity Pressure Visibility Wind Dir Wind Speed Gust Speed Precip Events Conditions
12:53 AM 39.9 °F 31.8 °F 30.0 °F 68% 30.04 in 10.0 mi WNW 15.0 mph - 0.00 in   Partly Cloudy
1:53 AM 39.0 °F 32.3 °F 30.9 °F 73% 30.06 in 10.0 mi WNW 10.4 mph - N/A   Clear
3:53 AM 41.0 °F 32.8 °F 30.9 °F 67% 30.08 in 10.0 mi WNW 16.1 mph 28.8 mph N/A   Clear
4:53 AM 39.9 °F 35.8 °F 30.0 °F 68% 30.09 in 10.0 mi NW 5.8 mph - N/A   Clear
5:53 AM 39.0 °F 34.0 °F 28.9 °F 67% 30.13 in 10.0 mi West 6.9 mph - N/A   Scattered Clouds
6:53 AM 37.9 °F 34.4 °F 28.9 °F 70% 30.15 in 10.0 mi ESE 4.6 mph - N/A   Mostly Cloudy
7:53 AM 37.9 °F 32.1 °F 32.0 °F 79% 30.17 in 10.0 mi NNW 8.1 mph - N/A   Mostly Cloudy
8:53 AM 43.0 °F 41.3 °F 30.9 °F 62% 30.19 in 10.0 mi NE 3.5 mph - N/A   Overcast
9:53 AM 42.1 °F - 28.9 °F 60% 30.21 in 10.0 mi Calm Calm - N/A   Overcast
10:53 AM 44.1 °F 41.5 °F 28.0 °F 53% 30.22 in 10.0 mi WNW 4.6 mph - N/A   Overcast
11:53 AM 48.0 °F - 30.9 °F 52% 30.21 in 10.0 mi West 12.7 mph 17.3 mph N/A   Overcast
1:53 PM 46.0 °F 41.9 °F 28.9 °F 51% 30.22 in 10.0 mi West 8.1 mph - N/A   Overcast
2:53 PM 46.0 °F 41.0 °F 28.9 °F 51% 30.21 in 10.0 mi NW 10.4 mph - N/A   Overcast
3:53 PM 46.0 °F 39.6 °F 30.9 °F 56% 30.20 in 10.0 mi NW 15.0 mph - N/A   Overcast
4:53 PM 45.0 °F 39.7 °F 30.9 °F 58% 30.20 in 10.0 mi WNW 10.4 mph - N/A   Overcast
5:53 PM 45.0 °F 40.6 °F 30.9 °F 58% 30.20 in 10.0 mi West 8.1 mph - N/A   Overcast
6:53 PM 44.1 °F 40.8 °F 32.0 °F 63% 30.19 in 10.0 mi NW 5.8 mph - N/A   Overcast
7:53 PM 44.1 °F 39.0 °F 32.0 °F 63% 30.20 in 10.0 mi NW 9.2 mph - N/A   Overcast
8:53 PM 42.1 °F 34.9 °F 30.9 °F 65% 30.20 in 10.0 mi West 13.8 mph - N/A   Overcast
9:53 PM 42.1 °F 36.1 °F 30.0 °F 62% 30.21 in 10.0 mi NNW 10.4 mph - N/A   Partly Cloudy
10:53 PM 41.0 °F 34.3 °F 30.0 °F 65% 30.21 in 10.0 mi NW 11.5 mph - N/A   Overcast
11:53 PM 41.0 °F 34.3 °F 32.0 °F 70% 30.21 in 10.0 mi WNW 11.5 mph - N/A   Scattered Clouds